sat.trackr.live / text

‹ back to catalog

ONEWEB-0679

NORAD 56715 · 2023-068F

PAYLOAD ACTIVE UNKNOWN

§ Identity

Operator
Country
UK
Launch date
2023-05-20
Launch site
AFWTR
Launch vehicle
Mass (kg)
RCS (m²)

Purposes: comms

External: N2YO · Heavens-Above · Gunter

§ Orbital elements

Epoch: 2026-09-19T15:09:56.442528Z

Period
109.37 min
Inclination
87.9156°
Eccentricity
0.0002106
Mean motion
13.16594458 rev/d
Perigee alt
1,196.2 km
Apogee alt
1,199.4 km
Semi-major
7,575.9 km
B*
1.5570e-4
RAAN
210.0197°
Arg perigee
92.6020°
Mean anomaly
267.5352°
Rev number
16,415

§ Raw data

ONEWEB-06791 56715U 23068F   26262.63190327  .00000072  00000+0  15570-3 0  99912 56715  87.9156 210.0197 0002106  92.6020 267.5352 13.16594458164153

JSON: /api/v1/satellites/56715 · /tle

For live sub-satellite position, see the globe view (requires WebGL).

§ Visibility from observer

Set your observer location to see the next 7 days of passes ≥ 10°. The values pass through the URL so the page stays shareable.

No JS? Fill the form by hand. The geolocation button needs JavaScript.